QPF
0.00 0.00 0.00 0.00 0.00 0.00 0.00 0.01 0.01 0.00 0.00 0.00 0.00 0.00 0.00 0.00 0.00 0.00 0.00 0.01 0.00 0.00 0.01 0.01 0.01 0.01 0.00 0.00 0.00 0.00 0.00 0.00 0.00 0.00 0.00 0.00 0.00 0.00 0.00 0.01 0.02 0.02 0.04 0.06 0.07 0.05 0.04 0.04 0.04
0.00 0.00 0.00 0.00 0.00 0.00 0.00 0.01 0.01 0.01 0.00 0.00 0.00 0.00 0.00 0.00 0.00 0.00 0.00 0.00 0.00 0.00 0.00 0.00 0.01 0.01 0.00 0.00 0.00 0.00 0.00 0.00 0.00 0.00 0.00 0.00 0.00 0.01 0.01 0.01 0.02 0.02 0.04 0.05 0.05 0.04 0.03 0.04 0.04
0.00 0.00 0.00 0.00 0.00 0.00 0.01 0.02 0.01 0.01 0.00 0.00 0.00 0.00 0.00 0.01 0.01 0.00 0.00 0.00 0.00 0.00 0.00 0.00 0.01 0.01 0.01 0.00 0.00 0.00 0.00 0.00 0.00 0.00 0.00 0.00 0.00 0.01 0.01 0.01 0.01 0.02 0.04 0.04 0.03 0.03 0.04 0.04 0.05
0.00 0.00 0.00 0.00 0.01 0.01 0.01 0.01 0.02 0.01 0.00 0.00 0.00 0.00 0.00 0.01 0.01 0.00 0.00 0.00 0.00 0.00 0.00 0.00 0.01 0.00 0.00 0.00 0.00 0.00 0.00 0.00 0.00 0.00 0.00 0.00 0.01 0.01 0.01 0.01 0.01 0.02 0.04 0.03 0.02 0.02 0.03 0.04 0.04
0.00 0.00 0.00 0.00 0.00 0.01 0.01 0.01 0.01 0.01 0.00 0.00 0.00 0.00 0.00 0.01 0.01 0.01 0.01 0.01 0.00 0.00 0.00 0.00 0.01 0.00 0.00 0.00 0.00 0.00 0.00 0.00 0.00 0.00 0.00 0.01 0.01 0.01 0.01 0.01 0.01 0.02 0.03 0.02 0.02 0.02 0.03 0.04 0.03
0.00 0.00 0.00 0.00 0.00 0.00 0.01 0.01 0.01 0.01 0.00 0.00 0.00 0.00 0.00 0.01 0.02 0.02 0.02 0.03 0.01 0.00 0.00 0.01 0.01 0.01 0.00 0.00 0.00 0.00 0.00 0.00 0.00 0.00 0.00 0.01 0.01 0.01 0.01 0.01 0.01 0.01 0.02 0.02 0.02 0.02 0.02 0.02 0.03
0.00 0.00 0.00 0.00 0.00 0.00 0.01 0.01 0.01 0.01 0.01 0.00 0.00 0.00 0.01 0.02 0.03 0.03 0.03 0.06 0.04 0.00 0.00 0.01 0.01 0.01 0.01 0.00 0.00 0.00 0.00 0.00 0.01 0.00 0.00 0.01 0.01 0.01 0.01 0.02 0.02 0.01 0.01 0.01 0.02 0.02 0.02 0.03 0.04
0.00 0.00 0.00 0.00 0.00 0.01 0.01 0.01 0.00 0.01 0.01 0.02 0.01 0.01 0.01 0.03 0.05 0.05 0.05 0.09 0.06 0.02 0.01 0.01 0.01 0.00 0.00 0.01 0.02 0.02 0.01 0.01 0.01 0.01 0.01 0.01 0.01 0.01 0.01 0.02 0.02 0.01 0.01 0.01 0.02 0.02 0.03 0.04 0.04
0.00 0.00 0.00 0.00 0.01 0.01 0.00 0.00 0.00 0.00 0.00 0.02 0.02 0.01 0.00 0.02 0.03 0.06 0.09 0.14 0.07 0.03 0.03 0.03 0.02 0.01 0.02 0.03 0.03 0.03 0.02 0.02 0.02 0.02 0.02 0.02 0.01 0.01 0.01 0.02 0.02 0.01 0.01 0.02 0.02 0.03 0.04 0.04 0.05
0.00 0.00 0.00 0.00 0.00 0.00 0.00 0.00 0.00 0.00 0.01 0.03 0.04 0.03 0.01 0.01 0.02 0.04 0.08 0.15 0.05 0.03 0.04 0.05 0.03 0.03 0.03 0.03 0.04 0.03 0.03 0.02 0.02 0.02 0.02 0.01 0.00 0.00 0.00 0.03 0.03 0.01 0.02 0.03 0.03 0.04 0.04 0.02 0.02
0.00 0.00 0.00 0.00 0.00 0.00 0.00 0.00 0.00 0.00 0.02 0.10 0.10 0.05 0.03 0.02 0.02 0.02 0.08 0.13 0.04 0.03 0.03 0.04 0.05 0.04 0.03 0.03 0.03 0.03 0.02 0.01 0.01 0.01 0.01 0.01 0.00 0.00 0.00 0.01 0.02 0.01 0.02 0.02 0.02 0.02 0.01 0.01 0.01
0.00 0.00 0.00 0.00 0.00 0.00 0.00 0.00 0.00 0.00 0.00 0.01 0.03 0.03 0.02 0.02 0.01 0.02 0.06 0.08 0.04 0.04 0.03 0.03 0.03 0.04 0.04 0.04 0.03 0.03 0.01 0.01 0.00 0.00 0.00 0.00 0.00 0.00 0.00 0.00 0.00 0.00 0.01 0.01 0.02 0.01 0.01 0.01 0.01
0.00 0.00 0.00 0.00 0.00 0.00 0.00 0.00 0.00 0.00 0.00 0.00 0.00 0.00 0.00 0.01 0.01 0.02 0.04 0.05 0.05 0.04 0.04 0.05 0.06 0.08 0.08 0.06 0.04 0.03 0.02 0.01 0.01 0.01 0.01 0.01 0.01 0.01 0.00 0.00 0.00 0.00 0.01 0.01 0.02 0.01 0.01 0.01 0.01
0.00 0.00 0.00 0.00 0.00 0.00 0.00 0.00 0.00 0.00 0.00 0.00 0.00 0.00 0.00 0.01 0.01 0.01 0.03 0.05 0.05 0.04 0.05 0.07 0.12 0.11 0.11 0.08 0.05 0.03 0.04 0.03 0.01 0.01 0.01 0.01 0.01 0.01 0.00 0.00 0.01 0.01 0.01 0.01 0.02 0.01 0.02 0.01 0.01
0.00 0.00 0.00 0.00 0.00 0.00 0.00 0.00 0.00 0.00 0.00 0.00 0.00 0.00 0.00 0.01 0.02 0.02 0.03 0.06 0.05 0.05 0.08 0.08 0.11 0.11 0.11 0.11 0.08 0.04 0.03 0.03 0.01 0.01 0.01 0.01 0.00 0.01 0.00 0.00 0.01 0.01 0.01 0.01 0.01 0.01 0.02 0.01 0.02
0.00 0.00 0.00 0.00 0.00 0.00 0.00 0.00 0.00 0.00 0.00 0.00 0.00 0.00 0.01 0.01 0.03 0.03 0.04 0.06 0.04 0.06 0.09 0.08 0.08 0.11 0.11 0.11 0.09 0.07 0.04 0.03 0.02 0.02 0.01 0.01 0.01 0.01 0.01 0.01 0.01 0.01 0.01 0.01 0.01 0.01 0.02 0.03 0.03
0.00 0.00 0.00 0.00 0.00 0.00 0.00 0.00 0.00 0.00 0.00 0.00 0.01 0.01 0.02 0.01 0.02 0.05 0.05 0.06 0.05 0.07 0.11 0.11 0.10 0.13 0.12 0.13 0.11 0.11 0.10 0.08 0.07 0.06 0.04 0.03 0.02 0.02 0.02 0.01 0.01 0.01 0.01 0.01 0.01 0.01 0.02 0.04 0.03
0.00 0.00 0.00 0.00 0.00 0.00 0.00 0.00 0.00 0.00 0.01 0.01 0.01 0.01 0.01 0.01 0.02 0.02 0.04 0.05 0.06 0.08 0.11 0.12 0.13 0.19 0.20 0.19 0.17 0.16 0.17 0.14 0.12 0.11 0.07 0.06 0.04 0.03 0.03 0.02 0.01 0.01 0.01 0.01 0.01 0.01 0.02 0.04 0.05
0.00 0.00 0.00 0.00 0.00 0.00 0.00 0.00 0.00 0.01 0.01 0.01 0.01 0.01 0.01 0.01 0.01 0.02 0.05 0.06 0.06 0.06 0.09 0.13 0.17 0.22 0.22 0.21 0.20 0.18 0.18 0.15 0.14 0.13 0.11 0.09 0.06 0.05 0.03 0.02 0.01 0.01 0.01 0.01 0.01 0.01 0.02 0.03 0.04
0.00 0.00 0.00 0.00 0.00 0.00 0.00 0.00 0.00 0.00 0.01 0.01 0.01 0.01 0.01 0.02 0.02 0.03 0.06 0.07 0.07 0.07 0.09 0.14 0.16 0.20 0.24 0.27 0.26 0.21 0.19 0.19 0.20 0.17 0.11 0.08 0.07 0.05 0.03 0.02 0.01 0.01 0.01 0.01 0.02 0.01 0.01 0.02 0.04
0.00 0.00 0.00 0.00 0.00 0.00 0.00 0.00 0.00 0.00 0.00 0.01 0.01 0.01 0.02 0.03 0.02 0.03 0.04 0.06 0.07 0.09 0.10 0.11 0.12 0.15 0.20 0.23 0.25 0.20 0.18 0.17 0.17 0.14 0.11 0.07 0.07 0.07 0.05 0.03 0.02 0.02 0.02 0.03 0.03 0.04 0.02 0.02 0.04
0.00 0.00 0.00 0.00 0.00 0.00 0.00 0.00 0.00 0.00 0.00 0.00 0.01 0.01 0.02 0.03 0.03 0.04 0.04 0.05 0.04 0.05 0.07 0.07 0.10 0.14 0.17 0.20 0.20 0.17 0.15 0.11 0.08 0.07 0.07 0.07 0.07 0.07 0.07 0.05 0.04 0.02 0.03 0.04 0.04 0.03 0.03 0.03 0.02
0.00 0.00 0.00 0.00 0.00 0.00 0.00 0.00 0.00 0.00 0.00 0.00 0.00 0.01 0.02 0.04 0.05 0.05 0.04 0.04 0.03 0.03 0.04 0.06 0.09 0.10 0.11 0.13 0.14 0.15 0.14 0.12 0.09 0.09 0.10 0.08 0.07 0.06 0.08 0.07 0.07 0.04 0.03 0.04 0.04 0.02 0.02 0.03 0.03
0.00 0.00 0.00 0.00 0.00 0.00 0.00 0.00 0.00 0.00 0.00 0.00 0.01 0.02 0.04 0.05 0.05 0.04 0.04 0.03 0.02 0.03 0.04 0.05 0.07 0.07 0.09 0.09 0.10 0.12 0.14 0.13 0.12 0.10 0.09 0.09 0.07 0.06 0.08 0.08 0.06 0.06 0.05 0.05 0.06 0.05 0.04 0.03 0.04
0.00 0.00 0.00 0.00 0.00 0.00 0.00 0.00 0.00 0.00 0.00 0.01 0.02 0.05 0.08 0.05 0.04 0.04 0.02 0.01 0.01 0.02 0.04 0.06 0.06 0.05 0.06 0.06 0.08 0.11 0.13 0.11 0.10 0.08 0.07 0.06 0.06 0.04 0.04 0.05 0.05 0.05 0.05 0.06 0.07 0.07 0.07 0.06 0.05
0.00 0.00 0.00 0.00 0.00 0.00 0.00 0.00 0.00 0.00 0.00 0.01 0.02 0.03 0.03 0.03 0.03 0.03 0.02 0.02 0.01 0.01 0.04 0.07 0.08 0.05 0.04 0.04 0.06 0.08 0.10 0.09 0.09 0.08 0.06 0.05 0.05 0.05 0.05 0.04 0.04 0.04 0.05 0.06 0.07 0.06 0.05 0.06 0.05
0.00 0.00 0.00 0.00 0.00 0.00 0.00 0.00 0.00 0.00 0.00 0.00 0.01 0.01 0.01 0.01 0.02 0.03 0.03 0.03 0.02 0.04 0.06 0.04 0.04 0.05 0.06 0.08 0.10 0.10 0.09 0.08 0.06 0.05 0.04 0.05 0.04 0.05 0.06 0.05 0.05 0.05 0.05 0.05 0.05 0.05 0.05 0.05 0.04
0.00 0.00 0.00 0.00 0.00 0.00 0.00 0.00 0.00 0.00 0.00 0.00 0.00 0.01 0.01 0.01 0.02 0.05 0.05 0.03 0.03 0.04 0.04 0.03 0.03 0.05 0.06 0.06 0.09 0.10 0.08 0.06 0.05 0.05 0.03 0.03 0.03 0.03 0.04 0.04 0.04 0.04 0.05 0.06 0.06 0.05 0.05 0.05 0.04
0.00 0.00 0.00 0.00 0.00 0.00 0.00 0.00 0.00 0.00 0.00 0.00 0.00 0.00 0.01 0.01 0.04 0.07 0.04 0.06 0.05 0.02 0.02 0.03 0.03 0.03 0.03 0.03 0.04 0.06 0.07 0.06 0.04 0.04 0.04 0.03 0.03 0.04 0.04 0.03 0.03 0.05 0.06 0.07 0.07 0.07 0.06 0.06 0.05
0.00 0.00 0.00 0.00 0.00 0.00 0.00 0.00 0.00 0.00 0.00 0.00 0.00 0.00 0.00 0.01 0.02 0.02 0.02 0.04 0.04 0.05 0.04 0.02 0.01 0.01 0.02 0.03 0.05 0.05 0.06 0.05 0.04 0.04 0.04 0.03 0.03 0.03 0.04 0.04 0.05 0.06 0.08 0.09 0.09 0.07 0.06 0.05 0.05
MSLP
1008.26 1009.37 1010.64 1011.89 1012.93 1013.65 1013.98 1013.96 1013.70 1013.34 1013.02 1012.86 1012.89 1013.10 1013.42 1013.73 1013.95 1014.02 1013.92 1013.70 1013.44 1013.22 1013.13 1013.19 1013.41 1013.73 1014.10 1014.44 1014.69 1014.84 1014.90 1014.90 1014.89 1014.93 1015.05 1015.24 1015.50 1015.78 1016.05 1016.27 1016.42 1016.50 1016.53 1016.54 1016.55 1016.60 1016.70 1016.84 1017.03
1008.68 1009.99 1011.39 1012.66 1013.64 1014.19 1014.29 1014.02 1013.50 1012.91 1012.42 1012.14 1012.13 1012.34 1012.70 1013.10 1013.41 1013.57 1013.56 1013.43 1013.25 1013.10 1013.06 1013.17 1013.43 1013.80 1014.21 1014.59 1014.89 1015.08 1015.19 1015.23 1015.26 1015.33 1015.44 1015.62 1015.85 1016.09 1016.31 1016.48 1016.60 1016.66 1016.69 1016.72 1016.77 1016.85 1016.97 1017.14 1017.35
1009.27 1010.72 1012.18 1013.42 1014.26 1014.62 1014.49 1013.98 1013.25 1012.49 1011.89 1011.56 1011.54 1011.79 1012.21 1012.67 1013.05 1013.28 1013.35 1013.28 1013.15 1013.04 1013.05 1013.19 1013.48 1013.88 1014.31 1014.72 1015.06 1015.29 1015.44 1015.53 1015.59 1015.67 1015.79 1015.94 1016.12 1016.31 1016.48 1016.61 1016.71 1016.77 1016.83 1016.90 1017.00 1017.14 1017.31 1017.51 1017.73
1010.01 1011.53 1012.96 1014.09 1014.76 1014.91 1014.58 1013.88 1013.01 1012.16 1011.52 1011.20 1011.21 1011.51 1011.98 1012.49 1012.92 1013.19 1013.29 1013.25 1013.16 1013.09 1013.13 1013.30 1013.60 1014.01 1014.45 1014.87 1015.22 1015.48 1015.66 1015.77 1015.86 1015.95 1016.06 1016.19 1016.33 1016.47 1016.60 1016.71 1016.80 1016.89 1016.99 1017.12 1017.29 1017.49 1017.71 1017.94 1018.18
1010.82 1012.32 1013.64 1014.61 1015.08 1015.04 1014.53 1013.72 1012.78 1011.93 1011.33 1011.06 1011.14 1011.50 1012.01 1012.54 1012.98 1013.26 1013.37 1013.36 1013.29 1013.25 1013.31 1013.50 1013.81 1014.21 1014.64 1015.04 1015.38 1015.65 1015.83 1015.96 1016.06 1016.16 1016.27 1016.39 1016.51 1016.62 1016.72 1016.82 1016.92 1017.04 1017.21 1017.40 1017.64 1017.90 1018.17 1018.42 1018.66
1011.60 1012.99 1014.14 1014.89 1015.16 1014.94 1014.33 1013.46 1012.55 1011.77 1011.28 1011.12 1011.28 1011.70 1012.23 1012.76 1013.19 1013.45 1013.55 1013.55 1013.50 1013.49 1013.58 1013.79 1014.10 1014.49 1014.89 1015.26 1015.57 1015.80 1015.98 1016.11 1016.23 1016.34 1016.45 1016.57 1016.68 1016.79 1016.89 1016.99 1017.11 1017.27 1017.49 1017.75 1018.04 1018.35 1018.65 1018.92 1019.15
1012.23 1013.44 1014.36 1014.89 1014.95 1014.59 1013.92 1013.08 1012.27 1011.64 1011.30 1011.28 1011.55 1012.01 1012.55 1013.06 1013.44 1013.67 1013.76 1013.76 1013.74 1013.78 1013.91 1014.14 1014.46 1014.82 1015.18 1015.50 1015.76 1015.96 1016.11 1016.24 1016.36 1016.50 1016.64 1016.78 1016.91 1017.02 1017.13 1017.24 1017.39 1017.58 1017.83 1018.13 1018.47 1018.81 1019.12 1019.39 1019.60
1012.66 1013.63 1014.29 1014.57 1014.45 1013.99 1013.31 1012.56 1011.90 1011.46 1011.31 1011.45 1011.82 1012.32 1012.86 1013.32 1013.65 1013.84 1013.92 1013.93 1013.96 1014.05 1014.24 1014.51 1014.84 1015.19 1015.51 1015.78 1015.98 1016.13 1016.25 1016.37 1016.51 1016.67 1016.85 1017.03 1017.19 1017.33 1017.45 1017.58 1017.74 1017.94 1018.21 1018.52 1018.87 1019.22 1019.53 1019.78 1019.97
1012.84 1013.55 1013.95 1013.99 1013.71 1013.19 1012.54 1011.92 1011.44 1011.21 1011.25 1011.54 1012.01 1012.55 1013.06 1013.48 1013.76 1013.91 1013.98 1014.03 1014.12 1014.28 1014.54 1014.86 1015.22 1015.56 1015.84 1016.05 1016.20 1016.31 1016.40 1016.52 1016.68 1016.88 1017.10 1017.33 1017.53 1017.70 1017.85 1017.98 1018.13 1018.33 1018.58 1018.88 1019.22 1019.55 1019.85 1020.09 1020.26
1012.84 1013.29 1013.42 1013.25 1012.84 1012.28 1011.69 1011.21 1010.92 1010.89 1011.11 1011.53 1012.07 1012.63 1013.12 1013.49 1013.73 1013.86 1013.94 1014.03 1014.19 1014.44 1014.77 1015.16 1015.55 1015.89 1016.15 1016.32 1016.42 1016.49 1016.56 1016.68 1016.86 1017.11 1017.38 1017.66 1017.91 1018.12 1018.27 1018.40 1018.53 1018.70 1018.91 1019.18 1019.49 1019.80 1020.08 1020.31 1020.47
1012.74 1012.94 1012.85 1012.50 1011.98 1011.40 1010.88 1010.52 1010.39 1010.52 1010.89 1011.41 1011.99 1012.55 1013.01 1013.35 1013.55 1013.68 1013.78 1013.93 1014.16 1014.50 1014.92 1015.37 1015.80 1016.15 1016.41 1016.56 1016.63 1016.67 1016.73 1016.86 1017.06 1017.34 1017.66 1017.99 1018.28 1018.52 1018.69 1018.81 1018.91 1019.03 1019.20 1019.42 1019.68 1019.97 1020.24 1020.47 1020.64
1012.66 1012.65 1012.37 1011.88 1011.29 1010.69 1010.22 1009.96 1009.94 1010.19 1010.64 1011.21 1011.80 1012.35 1012.78 1013.08 1013.27 1013.40 1013.54 1013.75 1014.06 1014.47 1014.97 1015.48 1015.95 1016.33 1016.59 1016.74 1016.80 1016.83 1016.89 1017.02 1017.25 1017.55 1017.91 1018.28 1018.61 1018.87 1019.05 1019.16 1019.24 1019.32 1019.44 1019.61 1019.83 1020.09 1020.35 1020.59 1020.78
1012.70 1012.54 1012.12 1011.53 1010.88 1010.28 1009.83 1009.62 1009.66 1009.95 1010.41 1010.98 1011.56 1012.07 1012.47 1012.74 1012.92 1013.07 1013.25 1013.51 1013.88 1014.36 1014.92 1015.48 1016.00 1016.41 1016.69 1016.85 1016.92 1016.97 1017.03 1017.16 1017.40 1017.72 1018.10 1018.48 1018.84 1019.12 1019.32 1019.43 1019.49 1019.55 1019.63 1019.77 1019.96 1020.20 1020.46 1020.71 1020.94
1012.93 1012.67 1012.17 1011.52 1010.83 1010.22 1009.78 1009.56 1009.59 1009.85 1010.28 1010.79 1011.31 1011.76 1012.12 1012.38 1012.57 1012.73 1012.95 1013.25 1013.66 1014.18 1014.78 1015.38 1015.93 1016.38 1016.70 1016.89 1017.00 1017.06 1017.13 1017.27 1017.50 1017.81 1018.19 1018.58 1018.95 1019.25 1019.46 1019.60 1019.67 1019.73 1019.80 1019.91 1020.09 1020.32 1020.58 1020.86 1021.12
1013.35 1013.03 1012.49 1011.83 1011.13 1010.51 1010.04 1009.78 1009.75 1009.92 1010.25 1010.66 1011.09 1011.48 1011.80 1012.04 1012.24 1012.43 1012.67 1012.99 1013.43 1013.96 1014.57 1015.19 1015.77 1016.25 1016.62 1016.87 1017.01 1017.11 1017.20 1017.33 1017.55 1017.84 1018.18 1018.56 1018.93 1019.24 1019.49 1019.66 1019.77 1019.86 1019.94 1020.06 1020.24 1020.47 1020.74 1021.03 1021.31
1013.89 1013.56 1013.03 1012.38 1011.70 1011.07 1010.57 1010.24 1010.10 1010.14 1010.32 1010.60 1010.92 1011.24 1011.52 1011.75 1011.97 1012.18 1012.44 1012.77 1013.21 1013.73 1014.32 1014.94 1015.53 1016.05 1016.47 1016.78 1016.99 1017.13 1017.24 1017.37 1017.55 1017.80 1018.10 1018.44 1018.80 1019.12 1019.40 1019.63 1019.80 1019.93 1020.06 1020.21 1020.40 1020.63 1020.90 1021.21 1021.51
1014.44 1014.13 1013.65 1013.06 1012.42 1011.81 1011.27 1010.86 1010.58 1010.46 1010.48 1010.61 1010.80 1011.04 1011.29 1011.53 1011.76 1012.01 1012.28 1012.61 1013.02 1013.51 1014.06 1014.66 1015.25 1015.80 1016.28 1016.66 1016.93 1017.12 1017.26 1017.39 1017.53 1017.72 1017.96 1018.25 1018.57 1018.91 1019.22 1019.50 1019.74 1019.95 1020.14 1020.33 1020.54 1020.78 1021.06 1021.36 1021.67
1014.89 1014.64 1014.24 1013.75 1013.19 1012.61 1012.06 1011.56 1011.15 1010.85 1010.69 1010.65 1010.73 1010.89 1011.11 1011.36 1011.63 1011.90 1012.20 1012.52 1012.89 1013.33 1013.83 1014.38 1014.97 1015.54 1016.06 1016.51 1016.86 1017.11 1017.28 1017.40 1017.50 1017.63 1017.80 1018.02 1018.31 1018.63 1018.97 1019.31 1019.62 1019.91 1020.17 1020.41 1020.65 1020.90 1021.17 1021.46 1021.77
1015.15 1014.99 1014.72 1014.37 1013.93 1013.42 1012.86 1012.28 1011.74 1011.27 1010.93 1010.72 1010.68 1010.77 1010.97 1011.24 1011.55 1011.87 1012.18 1012.50 1012.83 1013.21 1013.64 1014.14 1014.69 1015.27 1015.84 1016.35 1016.77 1017.08 1017.29 1017.41 1017.48 1017.55 1017.64 1017.80 1018.03 1018.33 1018.68 1019.07 1019.45 1019.80 1020.13 1020.42 1020.69 1020.94 1021.21 1021.49 1021.78
1015.20 1015.16 1015.07 1014.89 1014.60 1014.19 1013.65 1013.02 1012.35 1011.71 1011.18 1010.81 1010.64 1010.66 1010.84 1011.14 1011.50 1011.87 1012.22 1012.53 1012.84 1013.15 1013.51 1013.94 1014.45 1015.02 1015.60 1016.16 1016.65 1017.03 1017.28 1017.42 1017.47 1017.48 1017.51 1017.59 1017.77 1018.04 1018.39 1018.80 1019.22 1019.64 1020.02 1020.35 1020.64 1020.90 1021.15 1021.41 1021.69
1015.05 1015.19 1015.30 1015.34 1015.23 1014.94 1014.44 1013.76 1012.97 1012.16 1011.45 1010.91 1010.61 1010.55 1010.72 1011.04 1011.46 1011.89 1012.28 1012.61 1012.89 1013.15 1013.44 1013.79 1014.24 1014.77 1015.36 1015.95 1016.48 1016.92 1017.23 1017.39 1017.44 1017.43 1017.41 1017.43 1017.55 1017.78 1018.11 1018.53 1018.97 1019.42 1019.84 1020.20 1020.50 1020.77 1021.01 1021.25 1021.51
1014.82 1015.15 1015.51 1015.79 1015.88 1015.72 1015.26 1014.54 1013.63 1012.66 1011.75 1011.03 1010.59 1010.44 1010.58 1010.93 1011.40 1011.89 1012.34 1012.69 1012.96 1013.18 1013.39 1013.67 1014.04 1014.52 1015.08 1015.68 1016.26 1016.74 1017.10 1017.30 1017.37 1017.36 1017.32 1017.31 1017.39 1017.57 1017.87 1018.27 1018.72 1019.17 1019.60 1019.97 1020.28 1020.55 1020.78 1021.01 1021.25
1014.59 1015.16 1015.77 1016.29 1016.59 1016.55 1016.14 1015.37 1014.34 1013.19 1012.09 1011.18 1010.58 1010.33 1010.42 1010.78 1011.30 1011.85 1012.36 1012.75 1013.02 1013.21 1013.36 1013.56 1013.85 1014.26 1014.78 1015.36 1015.95 1016.47 1016.88 1017.14 1017.25 1017.26 1017.23 1017.21 1017.25 1017.41 1017.67 1018.04 1018.46 1018.91 1019.33 1019.70 1020.01 1020.27 1020.49 1020.71 1020.94
1014.47 1015.27 1016.14 1016.89 1017.37 1017.44 1017.06 1016.24 1015.08 1013.75 1012.45 1011.35 1010.59 1010.23 1010.26 1010.60 1011.15 1011.76 1012.32 1012.76 1013.05 1013.22 1013.33 1013.45 1013.66 1013.99 1014.44 1014.99 1015.57 1016.11 1016.56 1016.88 1017.05 1017.11 1017.11 1017.10 1017.14 1017.27 1017.51 1017.84 1018.23 1018.64 1019.04 1019.40 1019.70 1019.95 1020.17 1020.37 1020.59
1014.48 1015.51 1016.60 1017.55 1018.17 1018.32 1017.94 1017.06 1015.78 1014.29 1012.80 1011.53 1010.61 1010.12 1010.08 1010.40 1010.96 1011.62 1012.23 1012.72 1013.04 1013.21 1013.29 1013.35 1013.48 1013.73 1014.11 1014.60 1015.14 1015.69 1016.17 1016.53 1016.77 1016.89 1016.94 1016.97 1017.02 1017.15 1017.35 1017.65 1018.00 1018.38 1018.75 1019.09 1019.38 1019.62 1019.83 1020.03 1020.24
1014.61 1015.82 1017.08 1018.17 1018.88 1019.08 1018.69 1017.75 1016.37 1014.74 1013.11 1011.68 1010.63 1010.04 1009.92 1010.20 1010.76 1011.44 1012.10 1012.63 1012.99 1013.17 1013.24 1013.27 1013.34 1013.51 1013.80 1014.22 1014.72 1015.24 1015.73 1016.13 1016.42 1016.60 1016.71 1016.79 1016.87 1017.00 1017.20 1017.46 1017.78 1018.12 1018.46 1018.77 1019.05 1019.28 1019.49 1019.69 1019.90
1014.79 1016.12 1017.47 1018.62 1019.38 1019.58 1019.17 1018.18 1016.73 1015.03 1013.30 1011.78 1010.63 1009.96 1009.78 1010.02 1010.56 1011.25 1011.94 1012.51 1012.91 1013.12 1013.21 1013.22 1013.24 1013.35 1013.57 1013.92 1014.35 1014.83 1015.30 1015.71 1016.03 1016.27 1016.43 1016.55 1016.67 1016.81 1017.01 1017.25 1017.54 1017.84 1018.15 1018.45 1018.71 1018.94 1019.15 1019.35 1019.56
1014.92 1016.28 1017.64 1018.78 1019.51 1019.68 1019.25 1018.24 1016.79 1015.07 1013.33 1011.79 1010.61 1009.90 1009.68 1009.88 1010.40 1011.08 1011.78 1012.38 1012.82 1013.07 1013.18 1013.20 1013.21 1013.28 1013.44 1013.71 1014.08 1014.49 1014.92 1015.31 1015.64 1015.90 1016.10 1016.26 1016.41 1016.57 1016.77 1017.00 1017.26 1017.54 1017.82 1018.10 1018.35 1018.58 1018.80 1019.01 1019.22
1014.91 1016.21 1017.48 1018.53 1019.17 1019.29 1018.84 1017.86 1016.46 1014.82 1013.17 1011.69 1010.56 1009.87 1009.64 1009.81 1010.30 1010.95 1011.64 1012.24 1012.71 1013.01 1013.16 1013.22 1013.24 1013.29 1013.42 1013.63 1013.92 1014.27 1014.63 1014.98 1015.29 1015.55 1015.76 1015.94 1016.11 1016.28 1016.48 1016.70 1016.94 1017.20 1017.46 1017.72 1017.96 1018.20 1018.42 1018.64 1018.86
1014.73 1015.88 1016.98 1017.85 1018.37 1018.42 1017.96 1017.05 1015.77 1014.29 1012.81 1011.49 1010.48 1009.86 1009.65 1009.80 1010.25 1010.85 1011.50 1012.10 1012.58 1012.91 1013.12 1013.23 1013.29 1013.36 1013.47 1013.65 1013.88 1014.15 1014.44 1014.73 1014.99 1015.22 1015.42 1015.60 1015.77 1015.95 1016.14 1016.35 1016.58 1016.82 1017.06 1017.30 1017.54 1017.78 1018.02 1018.25 1018.49
Thickness
5828 5826 5822 5810 5788 5764 5760 5772 5782 5784 5787 5795 5796 5789 5779 5771 5764 5759 5776 5785 5783 5779 5775 5773 5771 5769 5768 5768 5767 5767 5767 5767 5767 5766 5766 5765 5765 5764 5763 5762 5761 5760 5759 5758 5757 5756 5755 5753 5751
5831 5828 5817 5800 5772 5749 5758 5778 5783 5789 5796 5800 5798 5791 5782 5776 5780 5777 5779 5783 5783 5779 5775 5772 5770 5769 5768 5767 5766 5765 5765 5765 5765 5764 5764 5763 5763 5762 5761 5760 5759 5758 5757 5756 5755 5754 5753 5751 5749
5834 5829 5808 5788 5768 5757 5766 5784 5790 5799 5804 5801 5794 5792 5784 5778 5781 5781 5784 5784 5781 5777 5774 5772 5770 5768 5766 5765 5765 5764 5764 5763 5762 5762 5762 5761 5761 5760 5759 5758 5757 5756 5755 5754 5753 5752 5750 5749 5748
5831 5817 5803 5781 5772 5778 5785 5793 5799 5798 5803 5803 5796 5785 5787 5791 5789 5788 5787 5784 5779 5776 5773 5771 5769 5767 5765 5764 5763 5763 5762 5761 5761 5760 5760 5759 5758 5758 5757 5756 5756 5755 5753 5752 5751 5750 5749 5747 5746
5827 5806 5784 5769 5776 5789 5799 5805 5804 5798 5797 5799 5795 5782 5780 5789 5794 5790 5786 5782 5778 5774 5771 5770 5767 5766 5764 5763 5762 5761 5760 5759 5759 5758 5758 5757 5756 5756 5755 5755 5754 5753 5752 5750 5749 5748 5747 5746 5745
5811 5797 5771 5764 5777 5796 5805 5810 5807 5800 5799 5800 5794 5782 5778 5788 5789 5787 5785 5780 5777 5774 5770 5768 5765 5764 5762 5761 5760 5759 5758 5757 5757 5757 5756 5755 5755 5754 5753 5753 5752 5751 5750 5749 5747 5746 5745 5744 5743
5805 5788 5774 5775 5778 5791 5806 5814 5806 5801 5798 5799 5799 5781 5779 5784 5787 5787 5783 5778 5775 5772 5769 5766 5764 5762 5760 5759 5758 5757 5756 5755 5755 5754 5754 5753 5753 5752 5751 5750 5750 5749 5748 5747 5746 5744 5743 5743 5742
5813 5791 5780 5776 5781 5791 5810 5814 5813 5806 5802 5810 5805 5785 5779 5786 5788 5785 5780 5775 5771 5769 5767 5764 5762 5760 5758 5756 5755 5754 5753 5753 5752 5752 5752 5751 5751 5750 5749 5748 5748 5747 5746 5745 5744 5743 5742 5741 5740
5818 5785 5774 5783 5789 5798 5812 5810 5814 5819 5811 5808 5807 5801 5798 5794 5788 5781 5774 5769 5767 5765 5764 5762 5760 5757 5755 5753 5752 5751 5751 5750 5750 5750 5750 5749 5749 5748 5747 5746 5746 5745 5744 5743 5742 5741 5740 5740 5739
5806 5780 5789 5803 5808 5810 5814 5812 5812 5810 5803 5800 5800 5800 5799 5793 5785 5778 5773 5768 5766 5763 5762 5760 5758 5755 5753 5751 5750 5749 5748 5748 5748 5748 5748 5747 5746 5746 5745 5745 5744 5744 5743 5742 5741 5740 5739 5738 5737
5808 5795 5805 5814 5820 5819 5816 5816 5817 5807 5798 5802 5800 5796 5795 5790 5784 5778 5775 5772 5769 5766 5762 5759 5756 5753 5751 5749 5747 5746 5746 5746 5746 5746 5746 5745 5744 5744 5743 5743 5742 5742 5741 5740 5739 5738 5737 5736 5735
5808 5810 5815 5819 5826 5822 5818 5817 5813 5811 5812 5821 5815 5806 5798 5790 5785 5781 5776 5772 5769 5765 5762 5758 5754 5750 5748 5746 5745 5744 5743 5743 5743 5743 5743 5743 5743 5742 5742 5741 5741 5740 5739 5738 5737 5736 5736 5735 5734
5809 5812 5819 5823 5823 5823 5822 5816 5814 5814 5823 5823 5815 5804 5797 5792 5787 5783 5779 5774 5770 5765 5762 5758 5754 5749 5745 5743 5742 5741 5741 5741 5741 5741 5742 5742 5741 5741 5740 5740 5739 5738 5737 5736 5735 5735 5734 5733 5733
5812 5813 5815 5819 5822 5825 5818 5815 5813 5815 5822 5817 5809 5802 5797 5792 5787 5781 5777 5772 5769 5766 5762 5758 5753 5748 5744 5742 5741 5740 5739 5739 5739 5740 5741 5741 5741 5740 5739 5739 5738 5737 5736 5735 5734 5733 5733 5732 5732
5814 5807 5809 5817 5820 5821 5818 5805 5809 5818 5818 5810 5805 5801 5797 5793 5788 5783 5779 5774 5771 5766 5762 5758 5754 5748 5744 5742 5740 5739 5738 5738 5738 5739 5740 5740 5740 5740 5739 5738 5737 5737 5736 5735 5734 5732 5732 5731 5731
5806 5793 5786 5806 5815 5818 5808 5789 5811 5818 5813 5805 5803 5800 5795 5791 5788 5785 5782 5777 5772 5767 5762 5758 5755 5749 5745 5742 5740 5739 5738 5737 5737 5738 5739 5739 5740 5740 5739 5738 5737 5736 5736 5734 5733 5732 5730 5730 5729
5780 5772 5778 5793 5812 5812 5803 5792 5809 5815 5810 5803 5801 5798 5794 5789 5787 5785 5783 5779 5774 5768 5763 5758 5755 5750 5747 5743 5740 5738 5737 5737 5737 5737 5738 5739 5739 5739 5739 5738 5737 5736 5735 5734 5733 5731 5730 5728 5727
5772 5773 5776 5780 5801 5803 5795 5793 5805 5810 5808 5802 5799 5796 5792 5789 5788 5786 5783 5779 5774 5769 5763 5759 5755 5751 5747 5742 5738 5736 5736 5736 5736 5736 5738 5739 5739 5739 5738 5737 5737 5736 5735 5733 5733 5731 5730 5728 5727
5784 5777 5771 5782 5800 5795 5791 5791 5798 5804 5803 5799 5796 5794 5791 5790 5791 5787 5782 5778 5773 5768 5763 5758 5753 5750 5745 5741 5737 5734 5734 5734 5735 5736 5737 5738 5738 5738 5738 5738 5737 5736 5735 5734 5732 5730 5728 5726 5726
5782 5774 5773 5783 5798 5794 5787 5788 5796 5800 5800 5801 5798 5794 5793 5789 5786 5785 5782 5777 5773 5768 5764 5758 5754 5750 5747 5744 5740 5738 5736 5734 5735 5736 5737 5738 5738 5738 5738 5738 5737 5736 5735 5733 5731 5730 5727 5726 5725
5779 5774 5776 5777 5786 5788 5784 5777 5786 5796 5800 5801 5800 5798 5795 5791 5786 5783 5780 5776 5773 5768 5765 5761 5756 5752 5748 5745 5741 5737 5734 5733 5732 5734 5735 5737 5738 5738 5738 5738 5737 5736 5735 5733 5731 5730 5728 5724 5724
5770 5786 5784 5780 5770 5759 5771 5751 5774 5783 5787 5793 5796 5796 5794 5792 5788 5784 5780 5775 5772 5770 5766 5762 5758 5753 5749 5745 5741 5737 5734 5731 5733 5735 5735 5736 5737 5737 5737 5737 5737 5736 5735 5733 5732 5731 5729 5726 5722
5783 5791 5785 5778 5768 5755 5759 5750 5759 5776 5780 5788 5794 5796 5795 5793 5789 5783 5780 5776 5774 5770 5765 5761 5757 5753 5750 5746 5742 5739 5736 5735 5735 5735 5735 5735 5736 5737 5737 5737 5737 5736 5734 5733 5732 5730 5729 5727 5725
5793 5781 5769 5756 5747 5737 5752 5747 5750 5766 5780 5788 5794 5796 5796 5793 5790 5784 5779 5775 5771 5768 5764 5759 5755 5752 5750 5747 5744 5740 5738 5736 5735 5734 5733 5733 5734 5735 5736 5736 5736 5735 5734 5733 5732 5730 5728 5727 5726
5783 5755 5730 5730 5720 5727 5746 5745 5751 5782 5791 5794 5795 5796 5796 5793 5787 5781 5776 5772 5769 5765 5762 5758 5754 5752 5750 5747 5744 5742 5740 5738 5736 5735 5734 5733 5733 5734 5735 5735 5734 5734 5733 5733 5731 5729 5728 5727 5725
5772 5758 5729 5719 5716 5723 5740 5741 5765 5791 5797 5801 5801 5799 5795 5791 5787 5782 5777 5773 5769 5766 5762 5758 5755 5752 5751 5748 5745 5743 5741 5739 5737 5737 5736 5735 5735 5735 5735 5735 5735 5734 5733 5732 5730 5729 5728 5726 5725
5763 5755 5755 5729 5723 5719 5729 5747 5771 5793 5794 5795 5795 5794 5791 5789 5786 5782 5777 5773 5769 5765 5761 5759 5755 5752 5750 5747 5745 5743 5741 5739 5738 5737 5736 5735 5735 5735 5735 5734 5733 5733 5732 5731 5729 5728 5726 5725 5724
5777 5758 5738 5724 5709 5710 5727 5737 5749 5776 5784 5788 5789 5788 5788 5788 5784 5781 5778 5774 5770 5766 5762 5759 5756 5752 5749 5747 5745 5743 5741 5740 5739 5737 5736 5736 5735 5735 5734 5733 5732 5731 5730 5729 5728 5726 5725 5723 5722
5761 5754 5739 5723 5723 5709 5710 5732 5773 5779 5787 5787 5788 5789 5788 5786 5784 5781 5778 5774 5770 5766 5762 5758 5755 5752 5749 5747 5745 5742 5741 5740 5739 5737 5736 5735 5735 5734 5733 5732 5730 5729 5728 5727 5725 5724 5722 5721 5719
5773 5758 5743 5732 5723 5716 5715 5736 5788 5787 5790 5790 5789 5789 5787 5786 5783 5781 5777 5773 5769 5764 5760 5756 5754 5751 5749 5747 5744 5742 5740 5738 5737 5736 5735 5734 5733 5733 5731 5730 5728 5727 5725 5724 5723 5721 5719 5717 5715